Time,TemperatureF,DewpointF,PressureIn,WindDirection,WindDirectionDegrees,WindSpeedMPH,WindSpeedGustMPH,Humidity,HourlyPrecipIn,Conditions,Clouds,dailyrainin,SoftwareType,DateUTC
2013-04-05 00:00:00,45.0,24.3,29.57,WNW,293,0.0,1.1,44,0.00,,,0.00,WUHU216HW,2013-04-05 05:00:00,
2013-04-05 00:05:00,45.0,24.3,29.58,NNW,338,0.0,1.1,44,0.00,,,0.00,WUHU216HW,2013-04-05 05:05:00,
2013-04-05 00:10:00,45.0,24.3,29.57,North,0,0.0,0.0,44,0.00,,,0.00,WUHU216HW,2013-04-05 05:10:00,
2013-04-05 00:15:00,45.0,24.9,29.58,North,0,0.0,0.0,45,0.00,,,0.00,WUHU216HW,2013-04-05 05:15:00,
2013-04-05 00:20:00,44.8,24.7,29.58,NNW,338,0.0,0.0,45,0.00,,,0.00,WUHU216HW,2013-04-05 05:20:00,
2013-04-05 00:25:00,44.8,24.7,29.58,NW,315,0.0,0.0,45,0.00,,,0.00,WUHU216HW,2013-04-05 05:25:00,
2013-04-05 00:30:00,44.8,24.7,29.58,NW,315,0.0,0.0,45,0.00,,,0.00,WUHU216HW,2013-04-05 05:30:00,
2013-04-05 00:35:00,44.8,24.7,29.58,WNW,293,0.4,0.7,45,0.00,,,0.00,WUHU216HW,2013-04-05 05:35:00,
2013-04-05 00:40:00,44.8,24.7,29.58,WNW,293,0.9,0.9,45,0.00,,,0.00,WUHU216HW,2013-04-05 05:40:00,
2013-04-05 00:45:00,44.8,24.7,29.58,NW,315,1.1,1.1,45,0.00,,,0.00,WUHU216HW,2013-04-05 05:45:00,
2013-04-05 00:50:00,44.8,24.7,29.58,NW,315,0.7,1.1,45,0.00,,,0.00,WUHU216HW,2013-04-05 05:50:00,
2013-04-05 00:55:00,44.8,24.7,29.58,NW,315,0.0,1.1,45,0.00,,,0.00,WUHU216HW,2013-04-05 05:55:00,
2013-04-05 01:00:00,45.0,24.9,29.58,WNW,293,0.4,1.1,45,0.00,,,0.00,WUHU216HW,2013-04-05 06:00:00,
2013-04-05 01:05:00,45.0,24.9,29.58,North,0,0.0,1.1,45,0.00,,,0.00,WUHU216HW,2013-04-05 06:05:00,
2013-04-05 01:10:00,45.0,24.9,29.58,North,0,0.0,0.4,45,0.00,,,0.00,WUHU216HW,2013-04-05 06:10:00,
2013-04-05 01:15:00,45.0,24.9,29.58,North,0,0.0,0.0,45,0.00,,,0.00,WUHU216HW,2013-04-05 06:15:00,
2013-04-05 01:20:00,45.0,24.9,29.59,NNW,338,0.0,0.0,45,0.00,,,0.00,WUHU216HW,2013-04-05 06:20:00,
2013-04-05 01:25:00,45.0,24.9,29.59,NNW,338,0.0,0.0,45,0.00,,,0.00,WUHU216HW,2013-04-05 06:25:00,
2013-04-05 01:30:00,45.0,25.4,29.59,NNW,338,0.0,0.0,46,0.00,,,0.00,WUHU216HW,2013-04-05 06:30:00,
2013-04-05 01:35:00,45.0,25.4,29.59,NW,315,0.0,0.0,46,0.00,,,0.00,WUHU216HW,2013-04-05 06:35:00,
2013-04-05 01:40:00,45.2,26.0,29.59,NE,45,0.0,0.0,47,0.00,,,0.00,WUHU216HW,2013-04-05 06:40:00,
2013-04-05 01:45:00,45.4,27.8,29.59,NNE,23,0.0,0.0,50,0.00,,,0.00,WUHU216HW,2013-04-05 06:45:00,
2013-04-05 01:50:00,45.4,29.2,29.59,NNW,338,0.0,0.0,53,0.00,,,0.00,WUHU216HW,2013-04-05 06:50:00,
2013-04-05 01:55:00,45.5,30.2,29.59,NNE,23,0.4,1.6,55,0.00,,,0.00,WUHU216HW,2013-04-05 06:55:00,
2013-04-05 02:00:00,45.5,30.2,29.59,ENE,68,0.0,1.6,55,0.00,,,0.00,WUHU216HW,2013-04-05 07:00:00,
2013-04-05 02:05:00,45.5,31.1,29.59,ENE,68,0.0,1.6,57,0.00,,,0.00,WUHU216HW,2013-04-05 07:05:00,
2013-04-05 02:10:00,45.5,30.7,29.59,NE,45,0.2,1.6,56,0.00,,,0.00,WUHU216HW,2013-04-05 07:10:00,
2013-04-05 02:15:00,45.4,31.0,29.59,East,90,0.0,1.6,57,0.00,,,0.00,WUHU216HW,2013-04-05 07:15:00,
2013-04-05 02:20:00,45.4,31.0,29.59,SSE,158,0.0,1.6,57,0.00,,,0.00,WUHU216HW,2013-04-05 07:20:00,
2013-04-05 02:25:00,45.4,31.0,29.59,NE,45,0.0,0.4,57,0.00,,,0.00,WUHU216HW,2013-04-05 07:25:00,
2013-04-05 02:30:00,45.4,31.0,29.59,North,0,0.0,0.4,57,0.00,,,0.00,WUHU216HW,2013-04-05 07:30:00,
2013-04-05 02:35:00,45.2,30.8,29.59,North,0,0.2,1.1,57,0.00,,,0.00,WUHU216HW,2013-04-05 07:35:00,
2013-04-05 02:40:00,45.0,30.7,29.59,North,0,0.0,1.1,57,0.00,,,0.00,WUHU216HW,2013-04-05 07:40:00,
2013-04-05 02:45:00,45.0,31.2,29.59,NNW,338,0.0,1.6,58,0.00,,,0.00,WUHU216HW,2013-04-05 07:45:00,
2013-04-05 02:50:00,45.0,30.7,29.59,NNW,338,0.0,1.6,57,0.00,,,0.00,WUHU216HW,2013-04-05 07:50:00,
2013-04-05 02:55:00,44.8,30.5,29.59,North,0,0.4,1.6,57,0.00,,,0.00,WUHU216HW,2013-04-05 07:55:00,
2013-04-05 03:00:00,44.6,30.8,29.59,North,0,0.9,1.6,58,0.00,,,0.00,WUHU216HW,2013-04-05 08:00:00,
2013-04-05 03:05:00,44.5,31.1,29.60,WNW,293,0.4,1.1,59,0.00,,,0.00,WUHU216HW,2013-04-05 08:05:00,
2013-04-05 03:10:00,44.3,30.9,29.60,ENE,68,0.4,1.1,59,0.00,,,0.00,WUHU216HW,2013-04-05 08:10:00,
2013-04-05 03:15:00,44.3,30.9,29.60,NNE,23,0.4,1.1,59,0.00,,,0.00,WUHU216HW,2013-04-05 08:15:00,
2013-04-05 03:20:00,44.3,30.9,29.60,NNW,338,0.0,0.9,59,0.00,,,0.00,WUHU216HW,2013-04-05 08:20:00,
2013-04-05 03:25:00,44.3,31.3,29.60,NNE,23,0.2,2.0,60,0.00,,,0.00,WUHU216HW,2013-04-05 08:25:00,
2013-04-05 03:30:00,44.1,31.1,29.60,NW,315,0.2,2.0,60,0.00,,,0.00,WUHU216HW,2013-04-05 08:30:00,
2013-04-05 03:35:00,43.9,31.0,29.61,NW,315,1.3,1.3,60,0.00,,,0.00,WUHU216HW,2013-04-05 08:35:00,
2013-04-05 03:40:00,43.7,30.8,29.61,North,0,0.4,1.3,60,0.00,,,0.00,WUHU216HW,2013-04-05 08:40:00,
2013-04-05 03:45:00,43.7,31.1,29.61,ESE,113,0.0,1.3,61,0.00,,,0.00,WUHU216HW,2013-04-05 08:45:00,
2013-04-05 03:50:00,43.7,31.1,29.61,North,0,0.0,1.8,61,0.00,,,0.00,WUHU216HW,2013-04-05 08:50:00,
2013-04-05 03:55:00,43.6,31.4,29.61,NE,45,0.0,2.5,62,0.00,,,0.00,WUHU216HW,2013-04-05 08:55:00,
2013-04-05 04:00:00,43.4,31.6,29.61,NNW,338,1.1,2.5,63,0.00,,,0.00,WUHU216HW,2013-04-05 09:00:00,
2013-04-05 04:05:00,43.2,31.1,29.61,NE,45,0.7,1.1,62,0.00,,,0.00,WUHU216HW,2013-04-05 09:05:00,
2013-04-05 04:10:00,43.0,31.2,29.61,North,0,0.4,1.1,63,0.00,,,0.00,WUHU216HW,2013-04-05 09:10:00,
2013-04-05 04:15:00,42.8,30.7,29.62,North,0,0.0,0.7,62,0.00,,,0.00,WUHU216HW,2013-04-05 09:15:00,
2013-04-05 04:20:00,42.8,30.7,29.62,North,0,0.0,0.9,62,0.00,,,0.00,WUHU216HW,2013-04-05 09:20:00,
2013-04-05 04:25:00,42.8,30.7,29.62,NNW,338,0.4,0.9,62,0.00,,,0.00,WUHU216HW,2013-04-05 09:25:00,
2013-04-05 04:30:00,42.7,30.5,29.62,North,0,0.4,0.7,62,0.00,,,0.00,WUHU216HW,2013-04-05 09:30:00,
2013-04-05 04:35:00,42.5,30.3,29.63,North,0,0.0,0.7,62,0.00,,,0.00,WUHU216HW,2013-04-05 09:35:00,
2013-04-05 04:40:00,42.5,30.3,29.63,North,0,0.0,1.1,62,0.00,,,0.00,WUHU216HW,2013-04-05 09:40:00,
2013-04-05 04:45:00,42.3,30.6,29.63,NNW,338,0.7,1.1,63,0.00,,,0.00,WUHU216HW,2013-04-05 09:45:00,
2013-04-05 04:51:00,42.1,30.4,29.63,North,0,0.4,1.1,63,0.00,,,0.00,WUHU216HW,2013-04-05 09:51:00,
2013-04-05 04:56:00,42.1,30.4,29.63,North,0,0.0,0.9,63,0.00,,,0.00,WUHU216HW,2013-04-05 09:56:00,
2013-04-05 05:01:00,41.9,30.3,29.63,North,0,0.0,0.4,63,0.00,,,0.00,WUHU216HW,2013-04-05 10:01:00,
2013-04-05 05:06:00,41.8,30.1,29.63,North,0,0.0,0.4,63,0.00,,,0.00,WUHU216HW,2013-04-05 10:06:00,
2013-04-05 05:11:00,41.8,30.1,29.63,NNW,338,0.0,1.3,63,0.00,,,0.00,WUHU216HW,2013-04-05 10:11:00,
2013-04-05 05:16:00,41.6,29.9,29.63,NW,315,1.1,1.3,63,0.00,,,0.00,WUHU216HW,2013-04-05 10:16:00,
2013-04-05 05:21:00,41.4,29.7,29.64,NW,315,0.4,1.1,63,0.00,,,0.00,WUHU216HW,2013-04-05 10:21:00,
2013-04-05 05:26:00,41.4,29.7,29.64,North,0,0.7,1.1,63,0.00,,,0.00,WUHU216HW,2013-04-05 10:26:00,
2013-04-05 06:00:00,40.7,30.2,29.66,North,0,0.9,0.9,66,0.00,,,0.00,WUHU216HW,2013-04-05 11:00:00,
2013-04-05 06:05:00,40.5,30.0,29.66,NNW,338,0.4,1.1,66,0.00,,,0.00,WUHU216HW,2013-04-05 11:05:00,
2013-04-05 06:10:00,40.5,30.3,29.66,NNE,23,0.9,1.1,67,0.00,,,0.00,WUHU216HW,2013-04-05 11:10:00,
2013-04-05 06:15:00,40.3,29.8,29.66,NNE,23,0.7,1.1,66,0.00,,,0.00,WUHU216HW,2013-04-05 11:15:00,
2013-04-05 06:20:00,40.1,30.0,29.66,NW,315,0.2,1.1,67,0.00,,,0.00,WUHU216HW,2013-04-05 11:20:00,
2013-04-05 06:25:00,40.1,30.0,29.67,NE,45,1.1,1.1,67,0.00,,,0.00,WUHU216HW,2013-04-05 11:25:00,
2013-04-05 06:30:00,40.0,29.8,29.67,North,0,0.0,1.1,67,0.00,,,0.00,WUHU216HW,2013-04-05 11:30:00,
2013-04-05 06:35:00,40.0,29.4,29.67,North,0,0.7,1.1,66,0.00,,,0.00,WUHU216HW,2013-04-05 11:35:00,
2013-04-05 06:40:00,39.8,29.3,29.67,North,0,0.0,0.7,66,0.00,,,0.00,WUHU216HW,2013-04-05 11:40:00,
2013-04-05 06:45:00,39.8,29.3,29.67,NNW,338,0.0,1.1,66,0.00,,,0.00,WUHU216HW,2013-04-05 11:45:00,
2013-04-05 06:50:00,39.8,29.3,29.67,North,0,0.4,1.1,66,0.00,,,0.00,WUHU216HW,2013-04-05 11:50:00,
2013-04-05 06:55:00,39.6,29.1,29.68,NW,315,0.2,1.3,66,0.00,,,0.00,WUHU216HW,2013-04-05 11:55:00,
2013-04-05 07:00:00,39.8,29.6,29.68,North,0,0.4,1.3,67,0.00,,,0.00,WUHU216HW,2013-04-05 12:00:00,
2013-04-05 07:05:00,39.8,29.3,29.68,East,90,0.7,1.3,66,0.00,,,0.00,WUHU216HW,2013-04-05 12:05:00,
2013-04-05 07:10:00,39.8,29.3,29.68,SSW,203,0.2,1.1,66,0.00,,,0.00,WUHU216HW,2013-04-05 12:10:00,
2013-04-05 07:15:00,40.0,29.4,29.69,NNE,23,0.9,1.1,66,0.00,,,0.00,WUHU216HW,2013-04-05 12:15:00,
2013-04-05 07:20:00,40.0,29.8,29.69,North,0,0.4,2.5,67,0.00,,,0.00,WUHU216HW,2013-04-05 12:20:00,
2013-04-05 07:25:00,40.1,30.0,29.69,NNW,338,1.1,2.5,67,0.00,,,0.00,WUHU216HW,2013-04-05 12:25:00,
2013-04-05 07:30:00,40.1,29.6,29.69,NNE,23,1.3,1.8,66,0.00,,,0.00,WUHU216HW,2013-04-05 12:30:00,
2013-04-05 07:35:00,40.5,30.0,29.69,NW,315,0.4,3.6,66,0.00,,,0.00,WUHU216HW,2013-04-05 12:35:00,
2013-04-05 07:40:00,40.3,29.4,29.69,SE,135,1.1,3.6,65,0.00,,,0.00,WUHU216HW,2013-04-05 12:40:00,
2013-04-05 07:45:00,40.7,29.8,29.70,NE,45,4.0,4.0,65,0.00,,,0.00,WUHU216HW,2013-04-05 12:45:00,
2013-04-05 07:50:00,40.7,29.4,29.69,NE,45,2.2,4.7,64,0.00,,,0.00,WUHU216HW,2013-04-05 12:50:00,
2013-04-05 07:55:00,41.0,29.8,29.70,NE,45,1.3,4.7,64,0.00,,,0.00,WUHU216HW,2013-04-05 12:55:00,
2013-04-05 08:00:00,41.2,29.5,29.70,East,90,0.9,4.5,63,0.00,,,0.00,WUHU216HW,2013-04-05 13:00:00,
2013-04-05 08:05:00,41.4,29.7,29.70,NE,45,4.7,4.7,63,0.00,,,0.00,WUHU216HW,2013-04-05 13:05:00,
2013-04-05 08:10:00,41.6,29.9,29.70,SW,225,3.8,6.3,63,0.00,,,0.00,WUHU216HW,2013-04-05 13:10:00,
2013-04-05 08:15:00,41.8,30.1,29.70,NNW,338,2.2,6.3,63,0.00,,,0.00,WUHU216HW,2013-04-05 13:15:00,
2013-04-05 08:20:00,41.9,30.3,29.70,NNE,23,3.6,6.5,63,0.00,,,0.00,WUHU216HW,2013-04-05 13:20:00,
2013-04-05 08:25:00,42.1,30.4,29.70,East,90,5.4,6.5,63,0.00,,,0.00,WUHU216HW,2013-04-05 13:25:00,
2013-04-05 08:30:00,42.1,30.4,29.71,NNE,23,2.0,5.8,63,0.00,,,0.00,WUHU216HW,2013-04-05 13:30:00,
2013-04-05 08:35:00,42.3,30.6,29.71,NE,45,1.3,5.8,63,0.00,,,0.00,WUHU216HW,2013-04-05 13:35:00,
2013-04-05 08:40:00,42.7,30.9,29.71,North,0,3.8,4.7,63,0.00,,,0.00,WUHU216HW,2013-04-05 13:40:00,
2013-04-05 08:45:00,42.8,31.1,29.71,NE,45,2.5,5.8,63,0.00,,,0.00,WUHU216HW,2013-04-05 13:45:00,
2013-04-05 08:50:00,42.8,31.1,29.71,North,0,3.4,6.9,63,0.00,,,0.00,WUHU216HW,2013-04-05 13:50:00,
2013-04-05 08:55:00,43.0,31.7,29.71,NNE,23,4.3,6.9,64,0.00,,,0.00,WUHU216HW,2013-04-05 13:55:00,
2013-04-05 09:00:00,43.6,31.8,29.71,East,90,2.5,6.3,63,0.00,,,0.00,WUHU216HW,2013-04-05 14:00:00,
2013-04-05 09:05:00,44.1,32.3,29.71,SSE,158,2.5,6.3,63,0.00,,,0.00,WUHU216HW,2013-04-05 14:05:00,
2013-04-05 09:10:00,44.6,32.4,29.72,East,90,2.5,5.4,62,0.00,,,0.00,WUHU216HW,2013-04-05 14:10:00,
2013-04-05 09:15:00,44.6,32.0,29.72,NNW,338,1.6,6.9,61,0.00,,,0.00,WUHU216HW,2013-04-05 14:15:00,
2013-04-05 09:20:00,44.8,32.6,29.72,ESE,113,2.7,6.9,62,0.00,,,0.00,WUHU216HW,2013-04-05 14:20:00,
2013-04-05 09:25:00,45.4,32.7,29.72,NNE,23,3.4,6.0,61,0.00,,,0.00,WUHU216HW,2013-04-05 14:25:00,
2013-04-05 09:30:00,45.4,32.3,29.72,NNE,23,3.8,6.0,60,0.00,,,0.00,WUHU216HW,2013-04-05 14:30:00,
2013-04-05 09:35:00,45.7,32.2,29.73,NE,45,2.0,6.0,59,0.00,,,0.00,WUHU216HW,2013-04-05 14:35:00,
2013-04-05 09:40:00,46.1,32.0,29.73,NNW,338,1.8,6.7,58,0.00,,,0.00,WUHU216HW,2013-04-05 14:40:00,
2013-04-05 09:45:00,46.8,32.8,29.73,NE,45,3.4,6.7,58,0.00,,,0.00,WUHU216HW,2013-04-05 14:45:00,
2013-04-05 09:50:00,47.0,32.5,29.73,East,90,3.6,6.3,57,0.00,,,0.00,WUHU216HW,2013-04-05 14:50:00,
2013-04-05 09:55:00,47.2,32.7,29.74,East,90,2.7,8.1,57,0.00,,,0.00,WUHU216HW,2013-04-05 14:55:00,
2013-04-05 10:00:00,47.5,32.6,29.74,ENE,68,2.7,8.1,56,0.00,,,0.00,WUHU216HW,2013-04-05 15:00:00,
2013-04-05 10:05:00,47.5,32.6,29.74,NE,45,2.0,5.6,56,0.00,,,0.00,WUHU216HW,2013-04-05 15:05:00,
2013-04-05 10:10:00,48.1,33.0,29.74,NE,45,2.2,6.0,56,0.00,,,0.00,WUHU216HW,2013-04-05 15:10:00,
2013-04-05 10:15:00,48.6,33.1,29.74,ENE,68,2.5,6.0,55,0.00,,,0.00,WUHU216HW,2013-04-05 15:15:00,
2013-04-05 10:20:00,49.0,32.9,29.74,NW,315,3.1,5.1,54,0.00,,,0.00,WUHU216HW,2013-04-05 15:20:00,
2013-04-05 10:25:00,49.0,32.0,29.74,NNE,23,4.9,6.5,52,0.00,,,0.00,WUHU216HW,2013-04-05 15:25:00,
2013-04-05 10:30:00,48.8,32.9,29.74,NE,45,1.6,6.5,54,0.00,,,0.00,WUHU216HW,2013-04-05 15:30:00,
2013-04-05 10:35:00,49.5,33.0,29.74,ENE,68,1.1,5.4,53,0.00,,,0.00,WUHU216HW,2013-04-05 15:35:00,
2013-04-05 10:40:00,49.9,33.4,29.74,North,0,4.7,5.1,53,0.00,,,0.00,WUHU216HW,2013-04-05 15:40:00,
2013-04-05 10:45:00,50.6,33.6,29.74,ESE,113,4.3,5.1,52,0.00,,,0.00,WUHU216HW,2013-04-05 15:45:00,
2013-04-05 10:51:00,50.8,32.9,29.74,NE,45,4.9,4.9,50,0.00,,,0.00,WUHU216HW,2013-04-05 15:51:00,
2013-04-05 10:56:00,51.3,33.4,29.74,NE,45,7.2,7.2,50,0.00,,,0.00,WUHU216HW,2013-04-05 15:56:00,
2013-04-05 11:01:00,51.5,32.9,29.74,NE,45,2.5,7.2,49,0.00,,,0.00,WUHU216HW,2013-04-05 16:01:00,
2013-04-05 11:06:00,51.8,32.8,29.74,SE,135,3.8,4.9,48,0.00,,,0.00,WUHU216HW,2013-04-05 16:06:00,
2013-04-05 11:11:00,52.2,33.0,29.74,NE,45,2.9,6.0,48,0.00,,,0.00,WUHU216HW,2013-04-05 16:11:00,
2013-04-05 11:16:00,52.2,32.5,29.74,NW,315,1.8,6.0,47,0.00,,,0.00,WUHU216HW,2013-04-05 16:16:00,
2013-04-05 11:21:00,52.6,32.2,29.74,ESE,113,1.3,5.8,46,0.00,,,0.00,WUHU216HW,2013-04-05 16:21:00,
2013-04-05 11:27:00,53.1,32.8,29.74,SE,135,1.1,3.4,46,0.00,,,0.00,WUHU216HW,2013-04-05 16:27:00,
2013-04-05 11:32:00,53.5,32.5,29.74,NNE,23,2.7,3.4,45,0.00,,,0.00,WUHU216HW,2013-04-05 16:32:00,
2013-04-05 11:37:00,53.6,33.2,29.74,East,90,3.1,4.0,46,0.00,,,0.00,WUHU216HW,2013-04-05 16:37:00,
2013-04-05 11:42:00,54.2,32.6,29.74,NNE,23,3.6,5.8,44,0.00,,,0.00,WUHU216HW,2013-04-05 16:42:00,
2013-04-05 11:47:00,54.2,31.5,29.74,NE,45,3.1,5.8,42,0.00,,,0.00,WUHU216HW,2013-04-05 16:47:00,
2013-04-05 11:52:00,54.4,32.2,29.73,ENE,68,3.4,6.3,43,0.00,,,0.00,WUHU216HW,2013-04-05 16:52:00,
2013-04-05 11:57:00,54.5,31.8,29.72,SE,135,1.8,6.3,42,0.00,,,0.00,WUHU216HW,2013-04-05 16:57:00,
2013-04-05 12:02:00,54.7,31.4,29.73,East,90,2.0,5.4,41,0.00,,,0.00,WUHU216HW,2013-04-05 17:02:00,
2013-04-05 12:07:00,54.9,31.6,29.73,SE,135,4.7,4.7,41,0.00,,,0.00,WUHU216HW,2013-04-05 17:07:00,
2013-04-05 12:12:00,55.4,31.5,29.73,ENE,68,1.1,4.7,40,0.00,,,0.00,WUHU216HW,2013-04-05 17:12:00,
2013-04-05 12:17:00,55.8,31.9,29.73,East,90,4.9,4.9,40,0.00,,,0.00,WUHU216HW,2013-04-05 17:17:00,
2013-04-05 12:22:00,56.2,32.1,29.72,ESE,113,3.8,4.9,40,0.00,,,0.00,WUHU216HW,2013-04-05 17:22:00,
2013-04-05 12:27:00,56.0,30.6,29.72,NE,45,3.4,4.7,38,0.00,,,0.00,WUHU216HW,2013-04-05 17:27:00,
2013-04-05 12:32:00,55.3,30.6,29.72,NNE,23,3.8,6.3,39,0.00,,,0.00,WUHU216HW,2013-04-05 17:32:00,
2013-04-05 12:37:00,55.6,30.2,29.71,NNE,23,3.6,6.3,38,0.00,,,0.00,WUHU216HW,2013-04-05 17:37:00,
2013-04-05 12:42:00,56.2,30.8,29.71,South,180,3.1,5.1,38,0.00,,,0.00,WUHU216HW,2013-04-05 17:42:00,
2013-04-05 12:47:00,56.2,30.8,29.71,NNE,23,3.4,5.1,38,0.00,,,0.00,WUHU216HW,2013-04-05 17:47:00,
2013-04-05 12:52:00,56.3,30.9,29.70,NNE,23,3.1,4.0,38,0.00,,,0.00,WUHU216HW,2013-04-05 17:52:00,
2013-04-05 12:57:00,56.5,29.7,29.69,ENE,68,1.8,5.6,36,0.00,,,0.00,WUHU216HW,2013-04-05 17:57:00,
2013-04-05 13:02:00,56.5,29.7,29.69,East,90,2.5,5.6,36,0.00,,,0.00,WUHU216HW,2013-04-05 18:02:00,
2013-04-05 13:07:00,56.3,30.3,29.70,ENE,68,0.4,6.3,37,0.00,,,0.00,WUHU216HW,2013-04-05 18:07:00,
2013-04-05 13:12:00,56.9,30.7,29.69,SSE,158,1.8,6.3,37,0.00,,,0.00,WUHU216HW,2013-04-05 18:12:00,
2013-04-05 13:17:00,57.4,30.5,29.69,SSE,158,1.3,4.0,36,0.00,,,0.00,WUHU216HW,2013-04-05 18:17:00,
2013-04-05 13:22:00,58.1,31.2,29.69,ESE,113,4.0,5.4,36,0.00,,,0.00,WUHU216HW,2013-04-05 18:22:00,
2013-04-05 13:27:00,58.5,29.3,29.69,NNE,23,0.4,5.4,33,0.00,,,0.00,WUHU216HW,2013-04-05 18:27:00,
2013-04-05 13:32:00,58.1,29.0,29.69,ESE,113,0.7,4.0,33,0.00,,,0.00,WUHU216HW,2013-04-05 18:32:00,
2013-04-05 13:37:00,58.1,29.0,29.69,North,0,1.6,4.7,33,0.00,,,0.00,WUHU216HW,2013-04-05 18:37:00,
2013-04-05 13:42:00,58.7,29.5,29.68,ENE,68,4.3,5.8,33,0.00,,,0.00,WUHU216HW,2013-04-05 18:42:00,
2013-04-05 13:47:00,58.9,29.7,29.68,ESE,113,3.1,5.8,33,0.00,,,0.00,WUHU216HW,2013-04-05 18:47:00,
2013-04-05 13:52:00,59.2,28.5,29.68,North,0,3.8,4.3,31,0.00,,,0.00,WUHU216HW,2013-04-05 18:52:00,
2013-04-05 13:57:00,59.0,28.5,29.67,ESE,113,2.2,5.1,31,0.00,,,0.00,WUHU216HW,2013-04-05 18:57:00,
2013-04-05 14:02:00,59.4,29.4,29.67,ESE,113,1.6,5.1,32,0.00,,,0.00,WUHU216HW,2013-04-05 19:02:00,
2013-04-05 14:07:00,59.9,29.9,29.67,SSE,158,2.2,6.0,32,0.00,,,0.00,WUHU216HW,2013-04-05 19:07:00,
2013-04-05 14:12:00,59.6,28.9,29.67,ENE,68,4.9,6.0,31,0.00,,,0.00,WUHU216HW,2013-04-05 19:12:00,
2013-04-05 14:17:00,59.8,29.7,29.67,South,180,2.9,6.0,32,0.00,,,0.00,WUHU216HW,2013-04-05 19:17:00,
2013-04-05 14:22:00,59.9,27.5,29.67,NNE,23,1.3,6.0,29,0.00,,,0.00,WUHU216HW,2013-04-05 19:22:00,
2013-04-05 14:27:00,59.0,27.7,29.67,NNE,23,2.5,4.7,30,0.00,,,0.00,WUHU216HW,2013-04-05 19:27:00,
2013-04-05 14:32:00,59.2,28.5,29.67,NE,45,4.0,4.5,31,0.00,,,0.00,WUHU216HW,2013-04-05 19:32:00,
2013-04-05 14:37:00,59.9,29.2,29.66,ESE,113,2.2,4.5,31,0.00,,,0.00,WUHU216HW,2013-04-05 19:37:00,
2013-04-05 14:42:00,60.3,29.4,29.66,SE,135,2.0,4.5,31,0.00,,,0.00,WUHU216HW,2013-04-05 19:42:00,
2013-04-05 14:47:00,60.5,28.9,29.66,SE,135,0.0,4.0,30,0.00,,,0.00,WUHU216HW,2013-04-05 19:47:00,
2013-04-05 14:52:00,60.8,29.9,29.66,SSE,158,2.0,3.4,31,0.00,,,0.00,WUHU216HW,2013-04-05 19:52:00,
2013-04-05 14:57:00,61.4,29.6,29.66,ESE,113,3.1,3.4,30,0.00,,,0.00,WUHU216HW,2013-04-05 19:57:00,
2013-04-05 15:02:00,61.6,29.8,29.66,SE,135,1.8,3.1,30,0.00,,,0.00,WUHU216HW,2013-04-05 20:02:00,
2013-04-05 15:08:00,61.6,30.5,29.66,East,90,2.9,4.7,31,0.00,,,0.00,WUHU216HW,2013-04-05 20:08:00,
2013-04-05 15:13:00,61.6,29.8,29.66,WNW,293,0.4,4.7,30,0.00,,,0.00,WUHU216HW,2013-04-05 20:13:00,
2013-04-05 15:18:00,62.1,31.1,29.66,WNW,293,0.7,2.9,31,0.00,,,0.00,WUHU216HW,2013-04-05 20:18:00,
2013-04-05 15:23:00,62.3,30.4,29.66,SSW,203,2.0,2.2,30,0.00,,,0.00,WUHU216HW,2013-04-05 20:23:00,
2013-04-05 15:28:00,62.6,30.8,29.66,ESE,113,1.8,2.9,30,0.00,,,0.00,WUHU216HW,2013-04-05 20:28:00,
2013-04-05 15:33:00,63.0,31.2,29.66,ENE,68,1.1,3.4,30,0.00,,,0.00,WUHU216HW,2013-04-05 20:33:00,
2013-04-05 15:38:00,62.6,27.9,29.66,NE,45,4.3,4.3,27,0.00,,,0.00,WUHU216HW,2013-04-05 20:38:00,
2013-04-05 15:43:00,62.3,27.5,29.66,NNE,23,1.8,4.3,27,0.00,,,0.00,WUHU216HW,2013-04-05 20:43:00,
2013-04-05 15:48:00,62.1,27.4,29.66,WSW,248,2.9,4.3,27,0.00,,,0.00,WUHU216HW,2013-04-05 20:48:00,
2013-04-05 15:53:00,61.7,27.1,29.65,West,270,2.5,3.4,27,0.00,,,0.00,WUHU216HW,2013-04-05 20:53:00,
2013-04-05 15:58:00,61.9,27.3,29.65,NW,315,3.6,4.0,27,0.00,,,0.00,WUHU216HW,2013-04-05 20:58:00,
2013-04-05 16:03:00,61.9,27.3,29.65,South,180,1.1,4.5,27,0.00,,,0.00,WUHU216HW,2013-04-05 21:03:00,
2013-04-05 16:08:00,62.3,28.5,29.64,North,0,1.8,4.5,28,0.00,,,0.00,WUHU216HW,2013-04-05 21:08:00,
2013-04-05 16:13:00,62.8,30.0,29.64,ENE,68,1.8,3.1,29,0.00,,,0.00,WUHU216HW,2013-04-05 21:13:00,
2013-04-05 16:18:00,63.0,28.2,29.63,ESE,113,1.3,3.4,27,0.00,,,0.00,WUHU216HW,2013-04-05 21:18:00,
2013-04-05 16:23:00,62.8,28.0,29.64,NNE,23,1.8,3.4,27,0.00,,,0.00,WUHU216HW,2013-04-05 21:23:00,
2013-04-05 16:28:00,62.8,29.0,29.64,ESE,113,3.4,4.3,28,0.00,,,0.00,WUHU216HW,2013-04-05 21:28:00,
2013-04-05 16:33:00,62.8,29.0,29.64,ENE,68,2.5,4.3,28,0.00,,,0.00,WUHU216HW,2013-04-05 21:33:00,
2013-04-05 16:38:00,62.6,27.9,29.64,NE,45,2.7,3.4,27,0.00,,,0.00,WUHU216HW,2013-04-05 21:38:00,
2013-04-05 16:43:00,62.5,27.7,29.64,East,90,0.0,2.7,27,0.00,,,0.00,WUHU216HW,2013-04-05 21:43:00,
2013-04-05 16:48:00,62.6,27.9,29.64,ESE,113,1.3,2.2,27,0.00,,,0.00,WUHU216HW,2013-04-05 21:48:00,
2013-04-05 16:53:00,62.6,25.9,29.64,SSE,158,3.8,4.0,25,0.00,,,0.00,WUHU216HW,2013-04-05 21:53:00,
2013-04-05 16:58:00,62.3,27.5,29.64,North,0,0.4,4.0,27,0.00,,,0.00,WUHU216HW,2013-04-05 21:58:00,
2013-04-05 17:03:00,62.3,27.5,29.64,SSE,158,4.5,4.5,27,0.00,,,0.00,WUHU216HW,2013-04-05 22:03:00,
2013-04-05 17:08:00,62.3,27.5,29.64,SSE,158,2.2,4.5,27,0.00,,,0.00,WUHU216HW,2013-04-05 22:08:00,
2013-04-05 17:13:00,62.3,27.5,29.64,East,90,1.1,4.5,27,0.00,,,0.00,WUHU216HW,2013-04-05 22:13:00,
2013-04-05 17:18:00,62.3,28.5,29.64,ESE,113,1.8,3.4,28,0.00,,,0.00,WUHU216HW,2013-04-05 22:18:00,
2013-04-05 17:23:00,62.5,28.7,29.64,WSW,248,0.4,3.4,28,0.00,,,0.00,WUHU216HW,2013-04-05 22:23:00,
2013-04-05 17:29:00,62.3,28.5,29.64,SE,135,0.7,3.1,28,0.00,,,0.00,WUHU216HW,2013-04-05 22:29:00,
2013-04-05 17:34:00,62.3,28.5,29.64,SE,135,1.1,2.5,28,0.00,,,0.00,WUHU216HW,2013-04-05 22:34:00,
2013-04-05 17:39:00,62.1,27.4,29.64,NE,45,1.1,2.7,27,0.00,,,0.00,WUHU216HW,2013-04-05 22:39:00,
2013-04-05 17:44:00,61.6,26.9,29.64,SE,135,1.1,2.7,27,0.00,,,0.00,WUHU216HW,2013-04-05 22:44:00,
2013-04-05 17:49:00,61.0,26.5,29.64,ESE,113,2.5,2.7,27,0.00,,,0.00,WUHU216HW,2013-04-05 22:49:00,
2013-04-05 17:54:00,60.8,27.3,29.64,NE,45,0.7,2.5,28,0.00,,,0.00,WUHU216HW,2013-04-05 22:54:00,
2013-04-05 17:59:00,60.5,26.0,29.64,ESE,113,0.9,2.5,27,0.00,,,0.00,WUHU216HW,2013-04-05 22:59:00,
2013-04-05 18:04:00,60.3,25.8,29.64,NE,45,0.0,1.8,27,0.00,,,0.00,WUHU216HW,2013-04-05 23:04:00,
2013-04-05 18:09:00,60.1,26.6,29.64,NNE,23,0.9,1.8,28,0.00,,,0.00,WUHU216HW,2013-04-05 23:09:00,
2013-04-05 18:14:00,60.1,26.6,29.65,ENE,68,0.4,0.9,28,0.00,,,0.00,WUHU216HW,2013-04-05 23:14:00,
2013-04-05 18:19:00,60.1,26.6,29.65,East,90,0.7,1.8,28,0.00,,,0.00,WUHU216HW,2013-04-05 23:19:00,
2013-04-05 18:24:00,59.9,26.6,29.64,ENE,68,0.7,2.5,28,0.00,,,0.00,WUHU216HW,2013-04-05 23:24:00,
2013-04-05 18:29:00,59.8,26.4,29.65,ENE,68,0.4,2.5,28,0.00,,,0.00,WUHU216HW,2013-04-05 23:29:00,
2013-04-05 18:35:00,59.4,26.1,29.64,ESE,113,1.6,1.8,28,0.00,,,0.00,WUHU216HW,2013-04-05 23:35:00,
2013-04-05 18:40:00,59.2,25.9,29.64,ESE,113,1.1,1.8,28,0.00,,,0.00,WUHU216HW,2013-04-05 23:40:00,
2013-04-05 18:45:00,59.2,25.9,29.64,ESE,113,0.9,1.8,28,0.00,,,0.00,WUHU216HW,2013-04-05 23:45:00,
2013-04-05 18:50:00,59.2,25.9,29.64,ENE,68,1.1,2.2,28,0.00,,,0.00,WUHU216HW,2013-04-05 23:50:00,
2013-04-05 18:55:00,59.0,25.7,29.64,SE,135,2.0,2.2,28,0.00,,,0.00,WUHU216HW,2013-04-05 23:55:00,
2013-04-05 19:00:00,58.7,25.5,29.64,SE,135,1.8,2.2,28,0.00,,,0.00,WUHU216HW,2013-04-06 00:00:00,
2013-04-05 19:05:00,58.7,26.5,29.64,ENE,68,2.0,2.5,29,0.00,,,0.00,WUHU216HW,2013-04-06 00:05:00,
2013-04-05 19:10:00,58.5,26.3,29.64,SE,135,1.8,2.9,29,0.00,,,0.00,WUHU216HW,2013-04-06 00:10:00,
2013-04-05 19:15:00,58.1,26.9,29.63,East,90,1.6,2.9,30,0.00,,,0.00,WUHU216HW,2013-04-06 00:15:00,
2013-04-05 19:20:00,57.8,26.6,29.63,ESE,113,1.1,4.0,30,0.00,,,0.00,WUHU216HW,2013-04-06 00:20:00,
2013-04-05 19:25:00,57.4,26.3,29.63,ESE,113,1.8,4.0,30,0.00,,,0.00,WUHU216HW,2013-04-06 00:25:00,
2013-04-05 19:30:00,57.1,25.9,29.64,ESE,113,2.7,3.4,30,0.00,,,0.00,WUHU216HW,2013-04-06 00:30:00,
2013-04-05 19:35:00,56.5,25.5,29.63,ESE,113,2.7,4.0,30,0.00,,,0.00,WUHU216HW,2013-04-06 00:35:00,
2013-04-05 19:40:00,56.2,25.8,29.63,NNE,23,1.8,4.0,31,0.00,,,0.00,WUHU216HW,2013-04-06 00:40:00,
2013-04-05 19:45:00,55.8,25.5,29.63,East,90,2.5,4.3,31,0.00,,,0.00,WUHU216HW,2013-04-06 00:45:00,
2013-04-05 19:50:00,55.6,26.0,29.63,SE,135,3.1,4.3,32,0.00,,,0.00,WUHU216HW,2013-04-06 00:50:00,
2013-04-05 19:55:00,55.1,25.6,29.63,ESE,113,3.8,4.0,32,0.00,,,0.00,WUHU216HW,2013-04-06 00:55:00,
2013-04-05 20:00:00,54.7,24.6,29.63,ESE,113,3.6,5.8,31,0.00,,,0.00,WUHU216HW,2013-04-06 01:00:00,
2013-04-05 20:05:00,54.2,24.1,29.63,South,180,4.5,6.0,31,0.00,,,0.00,WUHU216HW,2013-04-06 01:05:00,
2013-04-05 20:10:00,53.8,24.6,29.64,ESE,113,2.5,6.0,32,0.00,,,0.00,WUHU216HW,2013-04-06 01:10:00,
2013-04-05 20:15:00,53.6,24.4,29.64,East,90,1.1,4.9,32,0.00,,,0.00,WUHU216HW,2013-04-06 01:15:00,
2013-04-05 20:20:00,53.5,24.2,29.63,SE,135,3.4,5.4,32,0.00,,,0.00,WUHU216HW,2013-04-06 01:20:00,
2013-04-05 20:25:00,53.1,24.0,29.63,NNE,23,3.1,5.4,32,0.00,,,0.00,WUHU216HW,2013-04-06 01:25:00,
2013-04-05 20:30:00,52.7,23.0,29.63,SE,135,2.5,6.0,31,0.00,,,0.00,WUHU216HW,2013-04-06 01:30:00,
2013-04-05 20:35:00,52.6,23.4,29.63,NE,45,4.0,5.4,32,0.00,,,0.00,WUHU216HW,2013-04-06 01:35:00,
2013-04-05 20:40:00,52.2,23.1,29.63,East,90,2.2,5.8,32,0.00,,,0.00,WUHU216HW,2013-04-06 01:40:00,
2013-04-05 20:45:00,52.2,23.1,29.63,North,0,8.1,8.1,32,0.00,,,0.00,WUHU216HW,2013-04-06 01:45:00,
2013-04-05 20:50:00,51.8,22.8,29.63,SE,135,6.9,8.1,32,0.00,,,0.00,WUHU216HW,2013-04-06 01:50:00,
2013-04-05 20:55:00,51.1,22.1,29.64,East,90,7.6,8.3,32,0.00,,,0.00,WUHU216HW,2013-04-06 01:55:00,
2013-04-05 21:00:00,50.8,22.5,29.64,ESE,113,3.4,8.3,33,0.00,,,0.00,WUHU216HW,2013-04-06 02:00:00,
2013-04-05 21:05:00,50.4,22.1,29.64,East,90,3.1,7.6,33,0.00,,,0.00,WUHU216HW,2013-04-06 02:05:00,
2013-04-05 21:10:00,50.0,22.5,29.64,NE,45,2.5,7.2,34,0.00,,,0.00,WUHU216HW,2013-04-06 02:10:00,
2013-04-05 21:16:00,50.0,22.5,29.64,South,180,2.7,6.0,34,0.00,,,0.00,WUHU216HW,2013-04-06 02:16:00,
2013-04-05 21:21:00,49.9,22.4,29.64,SE,135,4.3,6.7,34,0.00,,,0.00,WUHU216HW,2013-04-06 02:21:00,
2013-04-05 21:26:00,49.5,22.8,29.64,ESE,113,4.0,6.7,35,0.00,,,0.00,WUHU216HW,2013-04-06 02:26:00,
2013-04-05 21:31:00,49.3,22.6,29.64,East,90,6.7,6.7,35,0.00,,,0.00,WUHU216HW,2013-04-06 02:31:00,
2013-04-05 21:36:00,49.1,23.1,29.64,NE,45,5.4,6.7,36,0.00,,,0.00,WUHU216HW,2013-04-06 02:36:00,
2013-04-05 21:41:00,48.8,22.9,29.64,South,180,3.1,6.7,36,0.00,,,0.00,WUHU216HW,2013-04-06 02:41:00,
2013-04-05 21:46:00,48.6,22.7,29.63,East,90,4.0,6.0,36,0.00,,,0.00,WUHU216HW,2013-04-06 02:46:00,
2013-04-05 21:51:00,48.4,22.5,29.63,ESE,113,3.4,7.2,36,0.00,,,0.00,WUHU216HW,2013-04-06 02:51:00,
2013-04-05 21:56:00,48.1,22.2,29.63,East,90,4.0,7.2,36,0.00,,,0.00,WUHU216HW,2013-04-06 02:56:00,
2013-04-05 22:01:00,47.9,22.1,29.63,SSE,158,6.3,6.3,36,0.00,,,0.00,WUHU216HW,2013-04-06 03:01:00,
2013-04-05 22:06:00,47.7,21.9,29.63,ESE,113,4.7,8.5,36,0.00,,,0.00,WUHU216HW,2013-04-06 03:06:00,
2013-04-05 22:11:00,47.5,21.7,29.63,ESE,113,4.9,8.5,36,0.00,,,0.00,WUHU216HW,2013-04-06 03:11:00,
2013-04-05 22:16:00,47.5,21.7,29.62,East,90,4.5,6.9,36,0.00,,,0.00,WUHU216HW,2013-04-06 03:16:00,
2013-04-05 22:21:00,47.3,21.5,29.63,East,90,6.5,6.9,36,0.00,,,0.00,WUHU216HW,2013-04-06 03:21:00,
2013-04-05 22:27:00,47.2,22.1,29.63,East,90,5.4,6.9,37,0.00,,,0.00,WUHU216HW,2013-04-06 03:27:00,
2013-04-05 22:32:00,47.0,21.9,29.62,SSE,158,5.4,6.0,37,0.00,,,0.00,WUHU216HW,2013-04-06 03:32:00,
2013-04-05 22:37:00,46.8,21.1,29.62,SE,135,4.0,6.3,36,0.00,,,0.00,WUHU216HW,2013-04-06 03:37:00,
2013-04-05 22:42:00,46.6,21.6,29.62,East,90,4.3,6.3,37,0.00,,,0.00,WUHU216HW,2013-04-06 03:42:00,
2013-04-05 22:47:00,46.6,21.6,29.62,East,90,5.4,6.9,37,0.00,,,0.00,WUHU216HW,2013-04-06 03:47:00,
2013-04-05 22:52:00,46.4,21.4,29.62,East,90,4.5,6.9,37,0.00,,,0.00,WUHU216HW,2013-04-06 03:52:00,
2013-04-05 22:57:00,46.3,21.9,29.63,ENE,68,3.6,5.8,38,0.00,,,0.00,WUHU216HW,2013-04-06 03:57:00,
2013-04-05 23:00:00,46.3,21.9,29.63,ESE,113,3.6,5.8,38,0.00,,,0.00,WUHU216HW,2013-04-06 04:00:00,
2013-04-05 23:05:00,46.3,21.9,29.63,ESE,113,3.4,5.1,38,0.00,,,0.00,WUHU216HW,2013-04-06 04:05:00,
2013-04-05 23:10:00,46.1,21.8,29.63,ESE,113,3.4,5.1,38,0.00,,,0.00,WUHU216HW,2013-04-06 04:10:00,
2013-04-05 23:15:00,45.9,21.6,29.63,ENE,68,4.0,5.1,38,0.00,,,0.00,WUHU216HW,2013-04-06 04:15:00,
2013-04-05 23:21:00,45.7,22.1,29.63,East,90,3.8,5.6,39,0.00,,,0.00,WUHU216HW,2013-04-06 04:21:00,
2013-04-05 23:26:00,45.7,22.1,29.63,ESE,113,3.6,6.5,39,0.00,,,0.00,WUHU216HW,2013-04-06 04:26:00,
2013-04-05 23:31:00,45.7,22.1,29.63,East,90,3.4,6.5,39,0.00,,,0.00,WUHU216HW,2013-04-06 04:31:00,
2013-04-05 23:36:00,45.5,22.0,29.63,East,90,2.5,5.4,39,0.00,,,0.00,WUHU216HW,2013-04-06 04:36:00,
2013-04-05 23:41:00,45.4,22.4,29.62,South,180,3.4,6.5,40,0.00,,,0.00,WUHU216HW,2013-04-06 04:41:00,
2013-04-05 23:46:00,45.0,22.2,29.62,NE,45,3.8,6.5,40,0.00,,,0.00,WUHU216HW,2013-04-06 04:46:00,
2013-04-05 23:51:00,45.0,22.7,29.62,ESE,113,4.9,5.8,41,0.00,,,0.00,WUHU216HW,2013-04-06 04:51:00,
2013-04-05 23:56:00,44.8,22.5,29.62,SE,135,4.7,4.9,41,0.00,,,0.00,WUHU216HW,2013-04-06 04:56:00,